W0KHZ Weather Reports


time (UTC)temp
C
wind
direction
speed
KPH
gust
KPH
rain 1hr
cm
rain 24hr
cm
rain mn
cm
humidity
%
barometer
mb
20260831210027 30 0.0 0.0 0.00 0.00 0.00 77 1039.1
20260831205544 30 0.0 0.0 0.00 0.00 0.00 76 1038.9
20260831205021 30 0.0 0.0 0.00 0.00 0.00 76 1038.9
20260831204519 30 0.0 0.0 0.00 0.00 0.00 76 1038.8
20260831204016 30 0.0 0.0 0.00 0.00 0.00 76 1038.9
20260831203533 30 0.0 0.0 0.00 0.00 0.00 76 1038.8
20260831203029 30 0.0 0.0 0.00 0.00 0.00 76 1038.8
20260831202527 30 0.0 0.0 0.00 0.00 0.00 76 1038.8
20260831202024 30 0.0 0.0 0.00 0.00 0.00 76 1038.7
20260831201521 30 0.0 0.0 0.00 0.00 0.00 76 1038.5
20260831201018 30 0.0 0.0 0.00 0.00 0.00 76 1038.4
20260831200515 30 0.0 0.0 0.00 0.00 0.00 76 1038.5
20260831200033 30 0.0 0.0 0.00 0.00 0.00 76 1038.6
20260831195548 30 167 0.0 1.6 0.00 0.00 0.00 75 1038.4
20260831195025 30 167 0.0 3.2 0.00 0.00 0.00 74 1038.6
20260831194523 30 167 0.0 1.6 0.00 0.00 0.00 74 1038.8
20260831194020 31 167 0.0 1.6 0.00 0.00 0.00 73 1038.7
20260831193517 31 167 0.0 3.2 0.00 0.00 0.00 72 1038.9
20260831193034 31 0.0 0.0 0.00 0.00 0.00 71 1039.0
20260831192630 32 0.0 0.0 0.00 0.00 0.00 70 1038.9
20260831192026 32 0.0 0.0 0.00 0.00 0.00 70 1038.7
20260831191524 32 167 0.0 1.6 0.00 0.00 0.00 69 1038.7
20260831191021 32 0.0 0.0 0.00 0.00 0.00 69 1038.6
20260831190517 32 0.0 0.0 0.00 0.00 0.00 69 1038.6
20260831190035 32 0.0 0.0 0.00 0.00 0.00 69 1038.5
20260831185532 32 0.0 0.0 0.00 0.00 0.00 68 1038.8
20260831185028 32 167 0.0 3.2 0.00 0.00 0.00 68 1038.8
20260831184545 32 0.0 0.0 0.00 0.00 0.00 69 1038.7
20260831184023 32 167 0.0 3.2 0.00 0.00 0.00 69 1038.8
20260831183520 32 167 0.0 1.6 0.00 0.00 0.00 69 1038.8
20260831183017 32 167 0.0 3.2 0.00 0.00 0.00 69 1039.0
20260831182534 32 167 0.0 3.2 0.00 0.00 0.00 69 1038.9
20260831182032 32 167 0.0 1.6 0.00 0.00 0.00 69 1039.0
20260831181528 32 167 0.0 3.2 0.00 0.00 0.00 70 1039.1
20260831181025 31 167 0.0 1.6 0.00 0.00 0.00 71 1039.0
20260831180543 31 0.0 0.0 0.00 0.00 0.00 69 1039.0
20260831180020 31 167 0.0 3.2 0.00 0.00 0.00 70 1039.1
20260831175518 31 167 0.0 4.8 0.00 0.00 0.00 71 1039.2
20260831175035 31 167 0.0 3.2 0.00 0.00 0.00 71 1039.3
20260831174532 31 166 0.0 3.2 0.00 0.00 0.00 72 1039.4
20260831174027 31 0.0 0.0 0.00 0.00 0.00 72 1039.4
20260831173525 31 166 0.0 1.6 0.00 0.00 0.00 73 1039.4
20260831173022 31 166 0.0 1.6 0.00 0.00 0.00 73 1039.5
20260831172519 30 167 0.0 1.6 0.00 0.00 0.00 73 1039.6
20260831172016 30 166 0.0 1.6 0.00 0.00 0.00 74 1039.6
20260831171533 30 167 0.0 1.6 0.00 0.00 0.00 73 1039.5
20260831171029 30 0.0 0.0 0.00 0.00 0.00 75 1039.6
20260831170526 30 0.0 0.0 0.00 0.00 0.00 75 1039.6
20260831170023 30 167 0.0 3.2 0.00 0.00 0.00 75 1039.7
20260831165520 30 167 0.0 1.6 0.00 0.00 0.00 75 1039.6
20260831165037 29 0.0 0.0 0.00 0.00 0.00 76 1039.7
20260831164555 29 0.0 0.0 0.00 0.00 0.00 75 1039.7
20260831164031 29 0.0 0.0 0.00 0.00 0.00 75 1039.8
20260831163528 28 0.0 0.0 0.00 0.00 0.00 74 1039.6
20260831163025 28 0.0 0.0 0.00 0.00 0.00 75 1039.6
20260831162522 28 0.0 0.0 0.00 0.00 0.00 75 1039.5
20260831162019 28 0.0 0.0 0.00 0.00 0.00 76 1039.5
20260831161537 28 0.0 0.0 0.00 0.00 0.00 77 1039.5
20260831161034 28 0.0 0.0 0.00 0.00 0.00 77 1039.5
20260831160551 27 0.0 0.0 0.00 0.00 0.00 78 1039.5
20260831160027 27 0.0 0.0 0.00 0.00 0.00 78 1039.6
20260831155524 27 0.0 0.0 0.00 0.00 0.00 79 1039.5
20260831155021 27 0.0 0.0 0.00 0.00 0.00 79 1039.3
20260831154518 27 0.0 0.0 0.00 0.00 0.00 79 1039.4
20260831154016 26 0.0 0.0 0.00 0.00 0.00 81 1039.4
20260831153553 26 0.0 0.0 0.00 0.00 0.00 80 1039.4
20260831153029 26 0.0 0.0 0.00 0.00 0.00 81 1039.4
20260831152706 26 0.0 0.0 0.00 0.00 0.00 81 1039.4
20260831152023 26 0.0 0.0 0.00 0.00 0.00 81 1039.3
20260831151520 26 0.0 0.0 0.00 0.00 0.00 81 1039.3
20260831151018 26 0.0 0.0 0.00 0.00 0.00 81 1039.3
20260831150515 26 0.0 0.0 0.00 0.00 0.00 81 1039.1
20260831150033 26 0.0 0.0 0.00 0.00 0.00 82 1039.1
20260831145528 26 0.0 0.0 0.00 0.00 0.00 83 1039.0
20260831145025 25 0.0 0.0 0.00 0.00 0.00 84 1038.9
20260831144522 25 0.0 0.0 0.00 0.00 0.00 84 1038.8
20260831144059 25 0.0 0.0 0.00 0.00 0.00 85 1038.8
20260831143517 25 0.0 0.0 0.00 0.00 0.00 85 1038.8
20260831143034 25 0.0 0.0 0.00 0.00 0.00 86 1038.7
20260831142529 24 0.0 0.0 0.00 0.00 0.00 86 1038.6
20260831142046 24 0.0 0.0 0.00 0.00 0.00 87 1038.6
20260831141524 24 0.0 0.0 0.00 0.00 0.00 87 1038.6
20260831141021 23 0.0 0.0 0.00 0.00 0.00 88 1038.5
20260831140518 23 0.0 0.0 0.00 0.00 0.00 89 1038.5
20260831140015 23 0.0 0.0 0.00 0.00 0.00 90 1038.5
20260831135533 23 0.0 0.0 0.00 0.00 0.00 90 1038.5
20260831135028 22 0.0 0.0 0.00 0.00 0.00 90 1038.5
20260831134525 22 0.0 0.0 0.00 0.00 0.00 91 1038.5
20260831134023 22 0.0 0.0 0.00 0.00 0.00 91 1038.6
20260831133520 21 0.0 0.0 0.00 0.00 0.00 91 1038.5
20260831133017 21 0.0 0.0 0.00 0.00 0.00 91 1038.6
20260831132534 21 0.0 0.0 0.00 0.00 0.00 91 1038.5
20260831132030 20 0.0 0.0 0.00 0.00 0.00 91 1038.5
20260831131527 20 0.0 0.0 0.00 0.00 0.00 90 1038.4
20260831131024 20 0.0 0.0 0.00 0.00 0.00 90 1038.4
20260831130521 20 0.0 0.0 0.00 0.00 0.00 90 1038.4
20260831130018 20 0.0 0.0 0.00 0.00 0.00 90 1038.2
20260831125535 20 0.0 0.0 0.00 0.00 0.00 90 1038.2
20260831125033 20 0.0 0.0 0.00 0.00 0.00 90 1038.3
20260831124528 20 0.0 0.0 0.00 0.00 0.00 90 1038.3
20260831124046 20 0.0 0.0 0.00 0.00 0.00 90 1038.1
20260831123543 20 0.0 0.0 0.00 0.00 0.00 90 1038.0
20260831123020 19 0.0 0.0 0.00 0.00 0.00 90 1038.2
20260831122537 19 0.0 0.0 0.00 0.00 0.00 90 1038.1
20260831122034 19 0.0 0.0 0.00 0.00 0.00 90 1038.0
20260831121531 19 0.0 0.0 0.00 0.00 0.00 89 1038.0
20260831121027 19 0.0 0.0 0.00 0.00 0.00 89 1037.8
20260831120524 19 0.0 0.0 0.00 0.00 0.00 89 1038.0
20260831120021 20 0.0 0.0 0.00 0.00 0.00 89 1037.9
20260831115518 20 0.0 0.0 0.00 0.00 0.00 89 1037.8
20260831115036 20 0.0 0.0 0.00 0.00 0.00 89 1037.8
20260831114533 20 0.0 0.0 0.00 0.00 0.00 89 1037.7
20260831114048 20 0.0 0.0 0.00 0.00 0.00 88 1037.7
20260831113525 20 0.0 0.0 0.00 0.00 0.00 88 1037.8
20260831113022 20 0.0 0.0 0.00 0.00 0.00 88 1037.8
20260831112519 21 0.0 0.0 0.00 0.00 0.00 88 1037.8
20260831112016 21 0.0 0.0 0.00 0.00 0.00 89 1037.8
20260831111534 21 0.0 0.0 0.00 0.00 0.00 89 1037.8
20260831111030 21 0.0 0.0 0.00 0.00 0.00 89 1037.8
20260831110526 21 0.0 0.0 0.00 0.00 0.00 89 1037.7
20260831110023 21 0.0 0.0 0.00 0.00 0.00 89 1037.9
20260831105521 21 0.0 0.0 0.00 0.00 0.00 89 1037.9
20260831105018 21 0.0 0.0 0.00 0.00 0.00 89 1037.7
20260831104536 21 0.0 0.0 0.00 0.00 0.00 89 1037.8
20260831104053 21 0.0 0.0 0.00 0.00 0.00 89 1037.7
20260831103528 21 0.0 0.0 0.00 0.00 0.00 89 1037.9
20260831103025 21 0.0 0.0 0.00 0.00 0.00 89 1037.9
20260831102522 21 0.0 0.0 0.00 0.00 0.00 89 1037.8
20260831102020 21 0.0 0.0 0.00 0.00 0.00 89 1037.8
20260831101536 21 0.0 0.0 0.00 0.00 0.00 89 1037.8
20260831101033 21 0.0 0.0 0.00 0.00 0.00 89 1037.7
20260831100550 21 0.0 0.0 0.00 0.00 0.00 89 1037.8
20260831100026 21 0.0 0.0 0.00 0.00 0.00 89 1037.9
20260831095523 21 0.0 0.0 0.00 0.00 0.00 89 1037.7
20260831095041 21 0.0 0.0 0.00 0.00 0.00 88 1037.7
20260831094519 21 0.0 0.0 0.00 0.00 0.00 88 1037.9
20260831094036 21 0.0 0.0 0.00 0.00 0.00 88 1037.9
20260831093533 21 0.0 0.0 0.00 0.00 0.00 88 1037.8
20260831093029 21 0.0 0.0 0.00 0.00 0.00 88 1038.0
20260831092546 21 0.0 0.0 0.00 0.00 0.00 88 1037.9
20260831092023 21 0.0 0.0 0.00 0.00 0.00 87 1037.9
20260831091520 21 0.0 0.0 0.00 0.00 0.00 87 1037.9
20260831091037 21 0.0 0.0 0.00 0.00 0.00 87 1037.9
20260831090535 21 0.0 0.0 0.00 0.00 0.00 87 1037.8
20260831090031 21 0.0 0.0 0.00 0.00 0.00 87 1037.9
20260831085527 22 0.0 0.0 0.00 0.00 0.00 87 1038.0
20260831085024 22 167 0.0 1.6 0.00 0.00 0.00 87 1037.9
20260831084521 22 0.0 0.0 0.00 0.00 0.00 87 1038.0
20260831084018 22 0.0 0.0 0.00 0.00 0.00 87 1037.9
20260831083515 22 0.0 0.0 0.00 0.00 0.00 87 1038.0
20260831083032 22 0.0 0.0 0.00 0.00 0.00 87 1037.9
20260831082528 22 167 0.0 1.6 0.00 0.00 0.00 87 1037.9
20260831082025 22 0.0 0.0 0.00 0.00 0.00 87 1037.9
20260831081522 22 168 0.0 1.6 0.00 0.00 0.00 87 1038.0
20260831081019 22 0.0 0.0 0.00 0.00 0.00 87 1037.9
20260831080516 22 0.0 0.0 0.00 0.00 0.00 87 1038.1
20260831080034 22 0.0 0.0 0.00 0.00 0.00 87 1038.0
20260831075531 22 0.0 0.0 0.00 0.00 0.00 87 1038.1
20260831075027 22 168 0.0 1.6 0.00 0.00 0.00 87 1038.2
20260831074524 22 0.0 0.0 0.00 0.00 0.00 87 1038.1
20260831074021 22 0.0 0.0 0.00 0.00 0.00 87 1038.1
20260831073519 22 0.0 0.0 0.00 0.00 0.00 87 1038.0
20260831073015 22 0.0 0.0 0.00 0.00 0.00 87 1038.0
20260831072533 22 0.0 0.0 0.00 0.00 0.00 86 1038.2
20260831072029 22 0.0 0.0 0.00 0.00 0.00 86 1038.1
20260831071525 22 0.0 0.0 0.00 0.00 0.00 86 1038.2
20260831071022 22 0.0 0.0 0.00 0.00 0.00 86 1038.2
20260831070539 22 0.0 0.0 0.00 0.00 0.00 86 1038.4
20260831070017 22 0.0 0.0 0.00 0.00 0.00 86 1038.4
20260831065535 22 0.0 0.0 0.00 0.00 0.00 86 1038.4
20260831065031 22 0.0 0.0 0.00 0.00 0.00 86 1038.3
20260831064547 22 0.0 0.0 0.00 0.00 0.00 86 1038.3
20260831064024 22 0.0 0.0 0.00 0.00 0.00 85 1038.4
20260831063521 22 0.0 0.0 0.00 0.00 0.00 85 1038.5
20260831063019 22 0.0 0.0 0.00 0.00 0.00 85 1038.6
20260831062516 22 0.0 0.0 0.00 0.00 0.00 85 1038.7
20260831062033 22 0.0 0.0 0.00 0.00 0.00 85 1038.8
20260831061530 22 0.0 0.0 0.00 0.00 0.00 85 1038.8
20260831061026 22 0.0 0.0 0.00 0.00 0.00 84 1038.8
20260831060524 22 0.0 0.0 0.00 0.00 0.00 84 1038.9
20260831060020 22 0.0 0.0 0.00 0.00 0.00 84 1039.0
20260831055517 22 0.0 0.0 0.00 0.00 0.00 84 1039.0
20260831055055 22 0.0 0.0 0.00 0.00 0.00 84 1039.1
20260831054532 22 0.0 0.0 0.00 0.00 0.00 84 1039.3
20260831054027 22 0.0 0.0 0.00 0.00 0.00 84 1039.2
20260831053525 22 0.0 0.0 0.00 0.00 0.00 84 1039.1
20260831053022 22 0.0 0.0 0.00 0.00 0.00 83 1039.2
20260831052519 23 168 0.0 1.6 0.00 0.00 0.00 83 1039.2
20260831052056 23 165 0.0 3.2 0.00 0.00 0.00 83 1039.2
20260831051534 23 147 0.0 3.2 0.00 0.00 0.00 82 1039.1
20260831051031 23 162 1.6 6.4 0.00 0.00 0.00 82 1039.1
20260831050527 23 145 1.6 9.7 0.00 0.00 0.00 82 1039.2
20260831050024 23 168 1.6 3.2 0.00 0.00 0.00 82 1039.2
20260831045521 23 168 1.6 4.8 0.00 0.00 0.00 82 1039.2
20260831045018 23 163 3.2 6.4 0.00 0.00 0.00 82 1039.3
20260831044535 23 182 1.6 4.8 0.00 0.00 0.00 82 1039.2
20260831044052 23 163 3.2 4.8 0.00 0.00 0.00 83 1039.3
20260831043528 23 146 3.2 9.7 0.00 0.00 0.00 83 1039.3
20260831043025 23 165 1.6 11.3 0.00 0.00 0.00 83 1039.4
20260831042523 23 166 1.6 4.8 0.00 0.00 0.00 83 1039.3
20260831042020 22 166 1.6 4.8 0.00 0.00 0.00 84 1039.4
20260831041517 22 168 1.6 3.2 0.00 0.00 0.00 84 1039.3
20260831041054 22 168 1.6 4.8 0.00 0.00 0.00 84 1039.5
20260831040532 22 163 1.6 6.4 0.00 0.00 0.00 84 1039.5
20260831040027 22 145 1.6 4.8 0.00 0.00 0.00 84 1039.4
20260831035525 22 155 1.6 3.2 0.00 0.00 0.00 85 1039.6
20260831035022 22 142 0.0 3.2 0.00 0.00 0.00 85 1039.5
20260831034538 22 151 1.6 4.8 0.00 0.00 0.00 85 1039.7
20260831034015 22 145 1.6 4.8 0.00 0.00 0.00 85 1039.7
20260831033533 22 139 0.0 1.6 0.00 0.00 0.00 85 1039.8
20260831033048 22 133 0.0 3.2 0.00 0.00 0.00 85 1039.9
20260831032526 22 133 1.6 4.8 0.00 0.00 0.00 86 1040.0
20260831032023 22 132 0.0 3.2 0.00 0.00 0.00 86 1039.9
20260831031520 22 162 0.0 3.2 0.00 0.00 0.00 87 1039.9
20260831031017 22 162 0.0 4.8 0.00 0.00 0.00 87 1039.9
20260831030534 22 162 0.0 4.8 0.00 0.00 0.00 87 1040.0
20260831030031 22 0.0 0.0 0.00 0.00 0.00 88 1040.0
20260831025527 21 0.0 0.0 0.00 0.00 0.00 88 1040.2
20260831025025 21 0.0 0.0 0.00 0.00 0.00 88 1040.1
20260831024523 21 0.0 0.0 0.00 0.00 0.00 88 1040.2
20260831024020 21 163 0.0 1.6 0.00 0.00 0.00 88 1040.2
20260831023557 21 0.0 0.0 0.00 0.00 0.00 88 1040.2
20260831023054 21 0.0 0.0 0.00 0.00 0.00 88 1040.4
20260831022530 21 163 0.0 1.6 0.00 0.00 0.00 88 1040.4
20260831022026 21 163 0.0 4.8 0.00 0.00 0.00 88 1040.4
20260831021524 21 0.0 0.0 0.00 0.00 0.00 88 1040.4
20260831021021 21 163 0.0 4.8 0.00 0.00 0.00 87 1040.3
20260831020518 22 163 0.0 3.2 0.00 0.00 0.00 87 1040.3
20260831020035 22 163 0.0 3.2 0.00 0.00 0.00 87 1040.4
20260831015531 22 163 0.0 1.6 0.00 0.00 0.00 86 1040.4
20260831015027 22 0.0 0.0 0.00 0.00 0.00 86 1040.4
20260831014524 22 0.0 0.0 0.00 0.00 0.00 86 1040.3
20260831014042 22 142 0.0 1.6 0.00 0.00 0.00 85 1040.3
20260831013519 22 0.0 0.0 0.00 0.00 0.00 85 1040.4
20260831013017 22 0.0 0.0 0.00 0.00 0.00 85 1040.2
20260831012634 22 0.0 0.0 0.00 0.00 0.00 84 1040.1
20260831012051 22 0.0 0.0 0.00 0.00 0.00 84 1040.0
20260831011527 23 0.0 0.0 0.00 0.00 0.00 84 1039.9
20260831011045 23 0.0 0.0 0.00 0.00 0.00 84 1040.0
20260831010543 23 0.0 0.0 0.00 0.00 0.00 84 1040.0
20260831010020 23 0.0 0.0 0.00 0.00 0.00 84 1039.9
20260831005518 23 0.0 0.0 0.00 0.00 0.00 84 1039.8
20260831005055 23 0.0 0.0 0.00 0.00 0.00 84 1039.9
20260831004532 23 0.0 0.0 0.00 0.00 0.00 84 1039.9
20260831004028 23 0.0 0.0 0.00 0.00 0.00 84 1039.8
20260831003606 23 0.0 0.0 0.00 0.00 0.00 84 1039.7
20260831003023 23 0.0 0.0 0.00 0.00 0.00 84 1039.8
20260831002521 23 142 0.0 1.6 0.00 0.00 0.00 84 1039.7
20260831002018 23 0.0 0.0 0.00 0.00 0.00 84 1039.7
20260831001515 23 0.0 0.0 0.00 0.00 0.00 84 1039.7
20260831001032 23 0.0 0.0 0.00 0.00 0.00 84 1039.5
20260831000527 23 0.0 0.0 0.00 0.00 0.00 83 1039.4
20260831000025 24 0.0 0.0 0.00 0.00 0.00 83 1039.4
20260830235522 24 0.0 0.0 0.00 0.00 0.00 83 1039.3
20260830235020 24 0.0 0.0 0.00 0.00 0.00 83 1039.2
20260830234537 24 0.0 0.0 0.00 0.00 0.00 83 1038.9
20260830234034 24 0.0 0.0 0.00 0.00 0.00 82 1038.8
20260830233551 24 0.0 0.0 0.00 0.00 0.00 81 1038.7
20260830233027 25 142 0.0 1.6 0.00 0.00 0.00 81 1038.9
20260830232524 25 142 0.0 1.6 0.00 0.00 0.00 81 1038.9
20260830232021 25 140 0.0 1.6 0.00 0.00 0.00 80 1039.0
20260830231518 25 137 0.0 1.6 0.00 0.00 0.00 80 1039.0
20260830231015 25 137 0.0 1.6 0.00 0.00 0.00 79 1039.0
20260830230553 25 0.0 0.0 0.00 0.00 0.00 79 1038.9
20260830230049 26 137 0.0 1.6 0.00 0.00 0.00 79 1038.9
20260830225525 26 137 0.0 4.8 0.00 0.00 0.00 78 1038.8
20260830225022 26 137 1.6 3.2 0.00 0.00 0.00 78 1039.0
20260830224519 26 137 0.0 1.6 0.00 0.00 0.00 77 1039.0
20260830224017 26 0.0 0.0 0.00 0.00 0.00 77 1038.9
20260830223534 26 136 0.0 3.2 0.00 0.00 0.00 76 1038.7
20260830223031 26 127 3.2 6.4 0.00 0.00 0.00 77 1038.7
20260830222526 26 163 1.6 4.8 0.00 0.00 0.00 77 1038.8
20260830222023 26 130 1.6 3.2 0.00 0.00 0.00 77 1038.8
20260830221540 26 130 0.0 1.6 0.00 0.00 0.00 77 1038.9
20260830221017 26 130 1.6 3.2 0.00 0.00 0.00 76 1038.9
20260830220535 26 124 1.6 4.8 0.00 0.00 0.00 76 1038.9
20260830220032 27 113 1.6 3.2 0.00 0.00 0.00 76 1038.9
20260830215528 27 99 1.6 4.8 0.00 0.00 0.00 77 1038.7
20260830215025 27 67 0.0 1.6 0.00 0.00 0.00 76 1038.5
20260830214522 27 0.0 0.0 0.00 0.00 0.00 75 1038.5
20260830214020 27 0.0 0.0 0.00 0.00 0.00 74 1038.6
20260830213517 27 66 0.0 3.2 0.00 0.00 0.00 73 1038.5
20260830213034 27 101 1.6 3.2 0.00 0.00 0.00 73 1038.4
20260830212530 28 114 1.6 3.2 0.00 0.00 0.00 73 1038.4
20260830212047 28 124 1.6 4.8 0.00 0.00 0.00 73 1038.3
20260830211524 28 132 3.2 4.8 0.00 0.00 0.00 73 1038.3
20260830211021 28 155 3.2 9.7 0.00 0.00 0.00 73 1038.4
20260830210518 27 156 3.2 6.4 0.00 0.00 0.00 74 1038.4